This is the latest recevied weather packets stored in our database for station/object BM1CCR-13. If no packets are shown the sender has not sent any weather packets the latest 10 day(s).
| Time | Temp. | Humidity | Pressure | Rain* | Wind** | Luminosity | Snow |
|---|---|---|---|---|---|---|---|
| 1777438083 | 30.56° C | 56% | 999.1 hPa | 0 mm | - | - | - |
| 1777437798 | 30.56° C | 54% | 999.1 hPa | 0 mm | - | - | - |
| 1777437783 | 30.56° C | 54% | 999.3 hPa | 0 mm | - | - | - |
| 1777437498 | 31.67° C | 51% | 999.3 hPa | 0 mm | - | - | - |
| 1777437483 | 31.67° C | 51% | 999.2 hPa | 0 mm | - | - | - |
| 1777437198 | 32.78° C | 50% | 999.4 hPa | 0 mm | - | - | - |
| 1777437184 | 32.78° C | 50% | 999.3 hPa | 0 mm | - | - | - |
| 1777436882 | 31.67° C | 53% | 999.5 hPa | 0 mm | - | - | - |
| 1777436598 | 31.67° C | 53% | 999.7 hPa | 0 mm | - | - | - |
| 1777436582 | 31.67° C | 53% | 999.6 hPa | 0 mm | - | - | - |
| 1777436282 | 31.67° C | 54% | 999.7 hPa | 0 mm | - | - | - |
| 1777435998 | 31.67° C | 55% | 999.8 hPa | 0 mm | - | - | - |
| 1777435982 | 31.67° C | 55% | 999.7 hPa | 0 mm | - | - | - |
| 1777435698 | 31.67° C | 54% | 999.7 hPa | 0 mm | - | - | - |
| 1777435682 | 31.67° C | 54% | 999.8 hPa | 0 mm | - | - | - |
| 1777435382 | 30.56° C | 55% | 999.7 hPa | 0 mm | - | - | - |
| 1777435099 | 30.56° C | 55% | 999.8 hPa | 0 mm | - | - | - |
| 1777435082 | 30.56° C | 55% | 999.7 hPa | 0 mm | - | - | - |
| 1777434782 | 30.56° C | 55% | 999.8 hPa | 0 mm | - | - | - |
| 1777434481 | 30.56° C | 55% | 999.8 hPa | 0 mm | - | - | - |
| 1777434198 | 30.56° C | 55% | 999.8 hPa | 0 mm | - | - | - |
| 1777434181 | 30.56° C | 55% | 999.9 hPa | 0 mm | - | - | - |
| 1777433881 | 31.67° C | 53% | 999.9 hPa | 0 mm | - | - | - |
| 1777433598 | 31.67° C | 52% | 999.9 hPa | 0 mm | - | - | - |
| 1777433581 | 31.67° C | 52% | 1000 hPa | 0 mm | - | - | - |
* Rain latest hour (hover to see other rain measurements)
** Current wind speed in m/s (hover to see current wind gust speed)